Location: Unspecified
(0.0000°N, 0.0000°E)
Time: 17:53:36
(UTC+00:00)

STARLINK 1058 - Pass Details

Date: 22 January 2020
Orbit: 548 x 551 km, 53.0° (Epoch: 17 January)

Event Time Altitude Azimuth Distance (km) Brightness Sun altitude
Rises 05:20:06 0° 228° (SW) 2,712 6.9 -12.1°
Reaches altitude 10° 05:22:27 10° 237° (WSW) 1,816 5.9 -11.5°
Maximum altitude 05:26:15 36° 304° (NW) 873 4.1 -10.6°
Drops below altitude 10° 05:30:03 10° 11° (NNE) 1,808 6.2 -9.7°
Sets 05:32:24 0° 20° (NNE) 2,698 7.2 -9.2°
